GEFSSE_500_meanwind_174.txt.gz
Wind_Speed
3 4 4 4 5 5 5 4 4 4 4 4 4 4 3 3 3 3 2 2 2 3 4 4 5 6 7 8 8 8 9 9 9 9 9 9 9 9 8 9 8 8 8
3 3 4 4 4 4 4 4 4 4 4 4 4 3 3 3 3 3 3 3 3 3 4 5 5 6 7 8 9 9 9 9 9 10 9 9 9 9 9 9 8 9 8
3 2 3 3 3 4 4 4 4 4 4 4 4 4 3 3 3 3 3 3 3 4 5 5 6 6 6 7 8 9 10 10 10 10 10 10 10 10 10 9 9 9 9
2 2 2 3 3 4 4 4 4 4 4 4 4 4 3 3 3 3 3 3 4 4 5 6 6 6 7 7 8 9 10 10 10 10 10 9 9 10 10 9 10 10 9
2 2 2 3 3 4 4 4 4 4 4 4 4 3 4 4 4 4 3 4 4 5 5 6 6 7 7 7 8 9 10 11 11 11 10 9 9 9 9 10 11 10 9
1 2 2 2 3 3 4 4 5 5 4 4 4 4 4 4 4 4 4 4 4 5 5 6 6 8 9 8 8 9 11 11 11 11 10 9 9 9 9 9 10 11 10
1 2 2 2 3 3 4 4 4 4 5 5 5 5 5 5 5 5 4 4 4 5 5 6 7 7 9 9 9 10 11 11 11 11 10 9 9 9 9 9 10 10 10
0 1 2 3 3 3 4 4 4 4 5 5 5 5 6 5 6 5 5 4 5 5 5 6 7 7 8 9 9 10 10 11 11 11 10 10 10 10 9 10 10 10 10
1 1 2 3 3 3 3 4 4 4 5 5 6 6 6 6 6 5 5 5 5 5 5 6 6 7 8 9 9 10 10 11 11 11 11 10 10 10 9 10 10 9 10
2 1 1 2 3 3 3 3 4 5 5 5 6 7 7 7 6 6 6 5 5 5 5 5 6 7 8 9 9 9 10 11 11 11 11 10 10 10 9 9 10 10 9
1 1 1 2 2 3 3 3 4 5 6 6 7 8 8 7 7 7 7 6 5 4 4 4 5 6 7 8 8 9 9 10 11 11 11 11 10 10 9 9 9 10 9
1 1 0 1 2 3 2 3 4 5 6 7 8 8 8 8 8 8 7 6 5 4 3 3 3 4 6 7 8 8 8 9 10 11 10 10 10 11 10 9 9 9 9
2 2 1 1 2 2 2 3 4 5 6 7 8 8 8 8 8 8 8 6 5 4 2 1 2 3 5 7 8 8 8 9 9 10 10 9 9 10 10 9 9 9 10
3 2 2 1 1 2 2 3 4 5 6 7 8 8 8 8 8 9 8 7 5 4 3 1 1 3 5 6 7 7 7 8 9 9 10 9 8 8 9 9 9 9 10
4 3 2 1 1 2 2 2 4 5 6 7 7 8 8 8 9 9 8 7 6 5 4 2 1 2 4 5 5 6 7 7 8 8 9 9 8 8 9 9 9 9 9
4 4 3 2 1 1 2 2 3 5 6 6 7 8 8 8 9 8 8 8 7 6 5 4 3 2 4 4 5 5 6 7 7 8 9 9 9 9 8 8 8 8 8
4 4 3 2 1 1 1 2 3 5 5 6 7 8 8 8 8 9 8 8 7 7 6 5 4 2 3 3 4 5 6 6 8 8 9 9 9 9 9 8 7 8 8
4 4 4 3 2 1 1 2 3 4 5 6 7 7 8 8 8 8 8 8 8 7 6 5 4 3 3 3 3 4 5 6 7 7 8 8 9 9 8 8 7 7 8
4 3 4 4 3 1 1 2 2 3 4 5 6 7 7 8 8 8 8 8 8 7 7 6 5 4 4 3 3 3 4 5 6 7 7 8 8 8 8 7 7 7 7
5 4 3 4 3 1 0 1 1 3 4 5 6 6 7 7 8 8 8 8 7 7 7 6 5 5 4 3 3 3 3 4 5 6 7 7 8 7 7 7 7 7 6
5 5 4 5 3 2 1 0 1 2 3 4 5 6 6 7 7 7 7 8 8 7 7 6 6 5 5 4 3 3 3 3 4 5 6 6 7 7 6 6 6 6 5
6 6 6 5 5 4 2 1 0 2 2 3 4 5 5 6 6 6 7 7 7 7 7 6 6 5 4 4 3 3 3 3 3 4 4 5 6 6 5 5 6 6 5
7 7 7 6 6 5 3 2 1 1 2 3 4 5 5 5 6 6 7 7 7 7 7 7 6 5 4 4 3 2 3 3 4 4 4 5 5 5 5 5 5 5 5
7 7 7 7 7 6 4 3 2 1 1 2 3 4 4 5 5 6 6 7 7 6 6 6 6 5 5 4 3 3 3 4 4 4 4 4 4 4 4 5 5 5 5
8 8 8 8 8 7 5 4 3 2 1 1 3 3 3 4 5 5 6 6 6 6 6 6 5 5 5 5 4 3 3 3 3 3 3 3 3 3 4 4 5 5 6
8 8 8 8 8 7 6 6 4 3 2 1 1 2 2 3 4 5 5 6 6 7 7 6 6 6 6 5 4 3 3 3 3 2 2 3 3 4 4 5 5 5 6

GEFSSE_500_meanwind_180.txt.gz
Wind_Speed
3 3 4 4 5 6 6 6 6 6 6 6 6 5 5 4 3 2 2 1 1 2 2 3 4 5 6 7 7 7 7 7 8 8 8 8 7 7 7 8 7 7 7
3 3 3 4 5 5 6 6 6 6 6 6 6 5 4 4 3 3 2 2 2 2 3 3 4 5 6 7 7 7 7 8 8 8 8 8 7 8 7 7 8 7 8
2 2 2 3 4 5 6 6 6 6 6 5 5 5 5 5 4 3 3 2 2 2 3 4 5 5 6 6 7 8 7 8 8 8 8 7 7 8 8 8 8 8 8
2 2 3 3 4 4 5 6 6 6 6 6 6 6 5 5 5 4 3 3 3 3 4 4 5 6 6 7 7 8 8 8 8 8 8 7 7 8 8 8 8 9 9
2 2 3 3 3 4 5 6 6 6 6 6 6 6 6 6 5 4 4 4 4 4 4 5 5 6 7 7 8 8 9 9 9 9 8 8 8 8 9 9 8 8 9
1 2 2 3 3 4 4 5 6 6 6 6 6 6 6 6 5 5 4 4 4 4 5 5 6 7 7 7 7 8 8 9 9 9 9 8 8 9 9 10 9 9 9
2 2 2 3 3 4 4 5 5 5 6 6 6 7 7 6 6 5 5 4 5 5 5 5 5 7 7 8 8 8 8 9 9 9 9 9 8 9 9 10 10 9 9
1 2 2 3 3 3 4 4 4 5 5 6 6 7 7 7 6 5 5 5 4 4 4 4 5 6 7 8 9 9 9 9 9 9 9 9 8 9 9 10 10 10 9
2 1 2 2 3 3 4 4 4 4 5 5 6 7 7 7 6 6 5 5 4 4 4 4 4 5 6 7 8 9 9 9 10 9 9 9 9 9 9 10 10 10 9
2 2 1 2 3 3 4 3 4 4 5 6 6 7 6 6 6 6 5 5 5 4 4 4 4 5 5 6 7 8 9 10 10 10 10 10 9 9 9 10 10 9 9
3 2 1 1 2 3 3 3 4 4 5 6 6 6 6 6 7 6 6 5 5 4 3 3 4 4 5 6 7 8 8 9 10 10 10 10 10 10 9 10 10 10 9
3 2 1 0 1 2 2 3 3 4 5 5 6 6 6 6 7 7 7 5 5 4 3 3 3 3 4 6 7 8 8 8 10 10 10 10 10 9 10 10 10 10 10
4 3 2 0 1 1 2 3 3 4 4 5 5 6 6 6 7 7 7 6 5 3 2 2 2 3 4 5 7 8 8 8 8 9 10 10 10 10 9 10 10 10 10
5 3 2 1 1 0 1 2 3 4 4 4 5 6 6 7 7 7 7 6 5 4 2 1 1 2 4 6 7 7 8 8 8 9 9 9 9 9 9 9 10 10 10
5 4 3 2 1 1 1 2 3 4 4 5 5 6 6 7 7 7 7 6 5 4 3 2 1 1 4 5 5 7 7 8 8 8 8 8 8 8 8 8 9 10 10
4 4 4 3 2 2 1 1 3 4 4 5 6 6 6 6 7 7 6 6 5 4 3 2 1 1 2 4 5 6 7 8 8 8 8 8 8 8 8 8 8 9 9
5 4 4 3 3 2 1 1 2 3 4 5 5 6 6 6 6 6 6 6 5 4 4 3 2 1 2 3 5 6 7 7 7 7 8 8 8 8 8 7 7 8 8
6 6 4 3 3 2 1 1 2 3 3 4 5 5 5 6 6 6 6 6 5 5 4 4 3 2 2 3 4 5 6 6 7 7 7 7 7 8 8 7 7 8 8
6 5 5 3 2 2 2 1 1 2 2 3 4 5 5 6 6 6 6 6 5 5 4 3 3 2 2 3 3 4 5 5 6 6 6 6 7 6 6 7 7 7 7
5 5 5 3 3 2 2 1 1 2 2 3 4 5 5 5 5 5 6 6 5 5 4 4 3 3 2 2 2 2 4 5 6 6 6 6 6 6 6 6 6 6 6
6 5 5 4 3 2 2 1 1 1 1 2 3 4 5 5 5 6 6 6 5 5 4 4 4 3 2 2 2 2 3 3 4 5 6 6 6 6 6 7 6 6 6
6 6 5 4 4 3 2 1 1 1 1 1 2 3 4 5 5 5 5 5 5 5 5 4 4 3 2 2 1 1 1 3 3 4 5 6 6 6 6 6 7 6 6
7 7 6 5 4 4 3 2 1 1 1 1 1 2 3 4 5 5 5 5 5 5 5 5 4 3 2 2 1 0 1 2 3 4 4 5 5 6 6 6 6 7 7
8 8 7 6 5 4 4 3 2 1 0 1 1 2 2 3 4 5 5 5 5 5 5 5 4 4 3 2 1 1 1 2 3 4 4 5 5 5 6 6 6 7 8
9 8 8 7 6 5 4 3 2 1 1 1 1 2 2 3 3 4 5 4 4 5 5 4 4 4 3 3 3 2 1 0 2 3 4 4 5 5 5 6 7 7 8
9 9 9 8 7 6 5 4 3 3 2 1 1 1 1 2 3 4 4 4 4 5 5 5 4 4 3 3 3 2 1 1 1 2 3 4 5 5 6 6 7 7 8

GEFSSE_500_meanwind_186.txt.gz
Wind_Speed
3 3 3 4 4 5 4 4 4 4 4 3 3 3 3 2 1 1 2 2 3 3 4 5 6 6 7 7 7 7 7 7 8 8 8 8 7 7 6 7 7 7 8
2 2 2 3 3 3 3 3 4 4 3 3 3 2 2 2 1 1 1 2 3 4 4 5 6 7 7 8 7 7 8 8 8 8 8 8 8 8 7 7 8 7 8
1 2 2 2 2 2 2 3 3 3 3 3 3 3 2 1 0 0 1 2 3 4 4 5 6 7 7 8 8 8 8 8 9 9 9 9 9 9 8 8 8 8 8
1 1 1 1 2 2 2 2 2 3 2 2 2 2 2 1 1 1 1 2 3 4 4 5 6 7 7 8 8 8 8 9 9 10 10 10 9 9 9 8 9 9 9
0 0 1 1 2 2 2 2 2 3 2 2 2 3 2 2 1 2 2 2 3 3 4 4 5 6 7 8 8 9 9 9 9 9 10 10 10 10 9 9 9 10 10
0 0 1 1 2 2 2 2 2 3 3 2 2 3 2 2 2 2 2 3 3 3 4 4 5 6 7 8 8 9 10 10 10 10 10 10 11 11 10 10 10 10 11
1 1 0 1 2 2 2 2 2 3 3 2 2 3 3 3 2 2 2 2 3 3 4 4 5 6 7 8 9 9 10 11 11 11 10 10 11 12 11 11 11 10 11
2 1 1 1 2 2 2 2 2 2 3 3 3 3 3 3 2 2 2 2 2 3 4 4 5 5 7 8 9 10 10 11 11 10 10 10 10 11 11 11 11 11 11
2 2 2 1 1 2 2 2 2 2 3 3 4 4 3 3 2 2 2 2 2 2 3 4 5 6 6 7 8 9 10 11 11 11 10 10 10 11 11 11 11 11 11
2 2 2 1 2 2 2 2 2 2 3 3 4 4 4 3 2 2 2 2 2 2 3 4 5 6 7 7 8 9 10 10 11 12 11 11 11 11 11 11 11 12 11
3 2 2 2 2 2 2 2 2 2 3 3 4 4 4 3 3 3 2 2 2 3 3 4 4 5 7 8 8 9 9 10 11 11 11 11 11 11 10 11 11 12 12
4 3 3 2 2 2 2 2 2 2 3 3 4 4 4 4 4 4 3 3 2 2 3 3 4 5 7 8 8 9 9 10 11 10 11 11 11 11 11 11 11 12 12
4 4 4 3 3 2 1 1 2 2 3 3 4 4 4 4 4 3 3 3 3 2 2 2 3 5 6 7 8 9 10 10 10 10 10 11 11 11 11 11 11 12 13
4 5 4 4 4 3 1 1 2 2 3 4 4 4 4 5 4 3 3 3 2 2 2 2 2 4 6 7 8 9 10 11 11 11 10 11 11 11 11 11 11 12 12
5 5 5 5 4 3 2 1 2 2 3 4 4 4 5 5 4 3 3 2 1 0 1 1 2 3 5 6 8 9 9 10 10 10 10 9 10 10 10 10 10 12 12
6 6 6 5 4 3 3 2 2 2 3 3 3 4 4 4 4 3 2 1 1 1 0 0 1 2 4 6 7 8 8 8 9 9 9 9 9 9 9 10 10 10 11
6 6 6 6 5 4 4 3 2 2 2 2 3 3 4 4 4 3 2 2 1 1 1 1 0 1 3 5 6 7 8 7 7 8 8 8 9 9 9 9 9 9 11
6 6 6 6 5 4 4 3 2 2 2 2 2 3 4 4 3 3 3 2 2 2 2 1 1 0 2 4 5 6 7 7 7 7 8 8 8 8 8 8 8 9 9
6 6 5 5 5 4 4 3 3 2 2 2 2 3 3 3 3 3 3 3 3 3 2 2 2 1 2 3 4 5 6 6 6 7 7 7 8 8 8 8 8 7 8
7 7 6 6 5 5 4 4 3 2 2 2 2 2 2 3 3 3 3 2 2 2 3 2 2 2 2 2 3 4 5 6 6 6 6 6 7 7 7 8 8 7 7
8 8 7 7 6 5 4 4 3 2 2 2 1 1 2 2 2 3 3 3 3 3 3 2 2 2 1 1 2 3 4 4 5 5 6 6 6 7 7 7 8 8 8
8 8 8 7 6 5 5 4 4 3 2 2 1 1 2 2 2 3 2 2 3 3 3 3 3 2 1 0 1 2 3 4 5 5 5 5 6 7 7 8 8 8 8
9 9 8 8 7 6 5 4 4 3 2 2 1 1 1 2 2 3 2 2 2 3 2 3 3 2 2 1 0 1 2 3 4 5 6 6 6 7 8 8 8 9 9
9 8 8 8 7 6 6 4 4 3 2 2 1 0 1 2 2 3 3 2 2 2 2 2 2 1 1 1 1 1 1 2 4 5 6 6 7 7 8 8 8 8 9
9 8 8 8 7 6 6 5 4 3 2 2 2 1 0 1 2 3 3 3 3 2 2 2 1 1 1 1 1 1 2 2 3 4 5 6 7 8 8 8 8 8 8
9 9 9 9 7 6 6 5 5 4 4 4 3 2 1 0 2 2 2 3 3 3 2 2 2 1 1 2 2 1 2 3 3 4 4 5 6 7 7 8 8 8 9

GEFSSE_500_meanwind_192.txt.gz
Wind_Speed
1 1 1 1 1 2 2 1 1 1 2 2 1 1 1 1 1 1 2 3 3 3 4 5 5 5 6 7 7 7 7 6 7 7 6 6 5 6 5 5 5 5 5
2 2 2 1 1 1 2 1 1 1 2 2 2 2 2 2 1 2 2 3 3 4 4 4 5 6 6 7 7 7 7 7 7 8 7 6 6 6 6 6 6 6 5
2 2 2 2 2 2 3 3 2 2 3 3 2 2 2 2 1 2 2 3 4 4 4 5 5 6 6 7 8 8 8 8 8 9 8 7 7 7 7 6 7 7 7
3 3 2 2 3 3 3 3 3 3 4 4 3 2 2 2 1 2 2 3 4 5 5 5 6 6 6 8 8 8 8 8 9 9 9 9 8 8 7 7 6 7 7
4 3 3 2 3 4 4 4 4 4 4 4 3 3 2 2 2 2 2 3 4 4 5 6 6 6 7 8 8 9 9 9 9 10 9 9 9 8 8 8 7 7 6
4 3 3 3 3 3 4 4 4 4 4 4 3 3 3 3 3 3 3 3 4 5 5 6 6 6 6 6 8 9 9 9 9 9 9 10 9 9 9 8 7 7 7
4 4 4 3 4 3 3 4 4 4 4 3 3 3 3 3 4 3 3 4 4 5 5 6 6 6 6 7 8 9 9 9 9 9 10 10 9 10 10 9 8 8 8
5 5 5 4 4 3 3 3 4 4 3 3 3 3 3 3 3 3 4 4 5 5 5 6 6 7 7 7 8 8 9 10 10 10 9 10 10 10 10 10 9 9 9
5 5 5 5 4 4 4 3 3 4 3 3 3 3 3 4 4 4 4 5 5 5 5 6 6 6 7 7 8 9 9 9 10 9 10 9 10 10 10 10 10 9 10
6 5 5 5 4 4 4 3 4 4 4 3 4 4 4 5 5 5 5 5 5 5 5 5 6 6 7 7 8 9 9 10 10 9 10 9 9 10 9 9 10 10 10
5 5 5 5 4 4 4 3 4 4 4 4 4 4 5 5 5 5 5 5 5 5 5 5 6 6 7 7 7 8 9 9 9 9 10 9 9 10 10 10 11 11 11
5 5 5 5 4 4 3 4 4 4 4 4 4 5 5 5 5 5 5 5 5 5 5 5 5 6 6 7 7 8 9 9 9 9 9 9 9 10 10 11 11 11 11
4 5 5 4 4 4 4 4 4 4 4 5 5 5 5 6 6 5 5 5 5 4 4 4 4 5 5 6 7 7 8 9 9 9 9 9 9 10 10 11 11 11 11
5 5 5 4 4 4 4 4 4 4 4 5 6 6 6 6 5 5 5 4 4 3 3 3 3 4 5 5 6 7 8 7 9 9 9 9 9 9 9 10 10 11 11
5 5 6 5 5 4 4 4 4 4 4 5 6 7 7 6 5 5 4 4 3 3 3 3 3 4 4 5 6 7 8 8 8 8 9 9 8 8 8 9 9 9 10
6 5 6 5 5 4 4 4 4 4 4 5 6 6 7 7 6 5 4 4 3 3 3 3 3 3 4 4 5 6 7 8 8 7 8 9 8 8 8 9 9 8 8
6 6 6 5 5 5 4 4 4 4 4 5 6 6 7 7 6 5 4 4 3 3 3 3 3 3 3 2 3 4 5 6 7 7 7 7 7 7 8 7 7 7 8
7 6 6 5 5 5 5 4 4 4 4 5 6 6 6 6 5 5 5 4 4 4 4 3 3 3 2 2 2 2 3 5 5 6 6 6 6 6 7 7 8 8 7
7 6 5 5 5 5 5 4 4 4 4 4 5 6 6 6 5 5 5 4 4 4 4 3 3 2 2 2 1 1 2 3 3 4 5 5 5 5 6 7 7 8 7
7 7 6 6 5 5 5 4 4 4 4 4 5 4 5 5 5 5 5 4 4 3 4 4 3 3 2 2 2 2 2 3 3 3 4 4 5 6 6 6 6 7 7
6 6 5 6 5 5 5 4 4 4 4 4 4 3 4 5 5 5 4 4 4 4 3 3 3 3 3 3 2 2 2 3 3 3 4 5 5 5 5 6 6 6 7
6 6 6 5 6 5 5 4 4 4 4 4 3 3 4 5 5 5 4 4 4 4 3 3 3 3 3 3 3 2 3 3 3 3 4 5 5 5 5 6 6 7 7
6 6 6 6 5 5 4 4 3 3 3 3 3 3 3 4 4 5 5 4 4 4 3 3 3 3 3 3 2 3 3 2 2 2 3 3 4 5 5 6 6 6 7
6 6 6 7 6 5 4 4 4 4 3 2 2 3 3 3 4 4 5 4 4 4 3 3 3 3 3 3 3 3 3 3 3 3 3 4 4 5 6 6 6 6 7
7 7 7 7 7 6 5 4 4 4 3 3 3 3 3 3 3 4 4 4 4 4 3 3 3 3 3 4 4 4 4 4 5 5 5 5 5 6 6 7 6 7 7
7 7 7 7 6 6 5 5 4 5 5 4 4 4 3 2 3 4 4 4 4 4 4 4 3 3 4 4 4 5 5 6 6 6 6 6 7 7 7 7 7 8 9

GEFSSE_500_meanwind_198.txt.gz
Wind_Speed
3 3 2 2 2 2 2 1 2 1 1 2 2 2 2 2 2 2 2 3 4 4 4 4 5 6 6 6 7 8 8 7 7 7 6 6 5 5 5 5 6 7 7
3 2 2 2 2 2 2 2 2 2 2 2 2 2 2 2 2 2 3 4 4 5 5 5 5 6 7 7 8 8 8 8 8 8 7 7 6 6 6 5 5 6 6
3 2 2 2 2 2 2 2 2 3 3 2 2 2 2 3 3 3 4 4 5 5 6 6 6 6 7 7 8 8 8 9 9 9 8 8 7 7 6 6 5 5 6
3 3 2 2 2 2 3 3 3 3 3 3 2 2 3 3 4 4 4 4 5 5 6 6 6 6 7 7 8 8 9 9 10 10 9 9 8 8 8 7 6 6 6
3 3 2 2 2 3 3 3 3 3 3 3 2 2 2 3 4 4 4 4 5 5 6 6 6 6 7 7 8 9 9 9 10 10 10 10 9 9 8 8 7 6 6
3 2 3 2 2 2 2 2 3 3 3 3 2 3 2 2 3 4 4 4 5 5 6 6 6 6 7 7 8 8 9 9 10 10 10 10 10 9 9 9 8 7 6
3 3 3 3 3 3 3 2 2 2 3 4 2 3 2 2 2 3 3 4 4 5 5 6 6 7 7 7 8 8 9 10 10 10 10 10 10 10 10 10 9 9 8
4 3 3 4 4 3 3 2 2 2 3 4 3 3 2 3 3 4 4 4 5 5 5 6 7 7 7 7 8 8 9 10 10 10 10 10 10 11 10 10 10 9 9
4 4 4 4 4 3 3 2 2 3 3 3 4 3 3 4 4 4 4 5 5 5 5 6 6 6 6 7 7 8 8 9 10 10 10 11 11 11 11 11 10 10 10
3 4 4 4 4 4 3 2 2 3 3 3 4 3 3 4 4 4 4 5 5 5 5 5 6 6 6 6 7 8 8 9 9 10 10 10 11 11 11 11 11 10 10
3 3 3 4 3 3 2 2 2 3 3 3 4 3 3 4 4 4 4 4 4 5 5 6 6 6 6 6 7 7 8 8 8 9 10 10 11 11 11 11 11 11 11
4 3 3 3 3 2 2 2 2 3 3 3 4 3 3 4 4 4 4 4 3 4 5 5 5 6 6 6 6 7 7 8 8 9 9 9 10 11 11 11 12 12 12
2 3 3 3 2 2 1 2 2 2 2 3 4 4 3 3 3 4 3 3 3 4 4 4 5 5 5 6 6 6 7 8 8 8 9 9 9 10 10 11 12 12 12
2 2 2 2 1 1 1 2 1 2 2 3 3 3 3 3 3 3 3 3 3 3 3 3 3 4 4 5 5 6 7 7 8 9 9 9 9 9 10 10 11 12 12
3 2 3 2 1 1 2 1 1 2 2 3 3 3 3 3 3 2 2 2 3 3 2 3 3 3 3 4 5 6 6 6 7 8 8 8 9 9 9 9 10 10 12
3 2 3 2 2 2 2 2 1 1 2 2 3 2 2 2 3 2 2 2 2 2 2 2 2 2 2 3 3 5 6 5 6 7 7 8 8 8 8 9 10 10 10
4 3 2 3 3 3 3 3 2 2 2 2 2 2 1 2 3 3 2 2 2 2 2 2 1 1 1 2 2 3 4 4 4 5 7 7 8 8 8 8 9 9 9
4 3 3 3 3 3 4 3 3 2 3 3 2 2 1 1 2 3 2 2 2 2 1 1 2 1 1 1 1 2 3 3 4 5 6 6 7 7 7 7 8 8 8
4 3 3 4 4 4 4 3 3 3 3 3 2 1 1 1 2 3 2 2 2 1 1 1 2 1 1 1 0 1 2 2 3 4 4 5 5 6 6 7 7 7 8
3 4 4 4 4 4 3 3 3 3 3 2 1 1 1 1 2 2 2 2 2 2 1 1 1 1 1 1 1 1 1 1 2 2 3 4 4 5 6 6 6 7 8
4 4 4 4 4 4 4 3 3 3 3 2 1 1 1 2 2 2 2 3 2 2 2 2 2 1 1 1 1 1 2 1 2 2 2 3 4 5 6 6 6 6 7
3 4 4 3 3 3 3 3 3 3 3 2 1 1 1 2 1 2 2 2 2 2 2 2 2 2 1 1 1 1 1 1 2 2 3 3 3 4 5 5 5 6 7
4 4 3 3 3 3 3 3 3 2 2 1 1 1 1 1 1 1 2 3 3 2 2 2 2 2 2 2 2 2 2 2 2 2 3 3 4 4 5 5 6 7 7
3 4 3 3 3 4 3 3 3 3 2 2 2 2 1 1 1 1 1 2 2 2 2 2 2 2 2 2 2 2 2 3 3 2 3 3 4 5 5 5 6 6 7
4 4 3 4 4 4 4 3 3 4 4 3 2 2 1 1 1 2 1 2 2 2 2 2 2 2 2 3 3 3 3 3 3 4 4 4 5 5 6 6 7 7 8
4 4 3 3 4 4 4 3 3 3 4 4 3 3 3 2 2 2 2 1 1 1 1 1 1 2 2 3 3 3 4 4 5 5 6 6 6 7 7 8 8 8 9